Location: Lecco
(45.8566°N, 9.3977°E)
Time: 06:30:24
(UTC+02:00)

Altair - Pass Details

Date: 20 August 2020
Orbit: 1501 x 1682 km, 47.2° (Epoch: 25 September)

Event Time Altitude Azimuth Distance (km) Brightness Sun altitude
Rises 22:24:08 0° 173° (S) 4,895 - -19.2°
Reaches altitude 10° 22:29:31 10° 150° (SSE) 3,884 - -19.9°
Maximum altitude 22:33:52 14° 124° (ESE) 3,560 - -20.4°
Drops below altitude 10° 22:38:10 10° 97° (E) 3,833 - -20.9°
Exits shadow 22:41:17 - 82° (E) 4,345 9.5 -21.3°
Sets 22:43:21 0° 74° (ENE) 4,783 9.8 -21.5°
